| time (UTC) | temp C | wind direction | speed KPH | gust KPH | rain 1hr cm | rain 24hr cm | rain mn cm | humidity % | barometer mb |
| 20260506103525 | 13 | 34 | 3.2 | 4.8 | 0.00 | 0.00 | 0.00 | 84 | 1089.5 |
| 20260506103021 | 13 | 36 | 3.2 | 4.8 | 0.00 | 0.00 | 0.00 | 84 | 1089.2 |
| 20260506102520 | 14 | 87 | 1.6 | 3.2 | 0.00 | 0.00 | 0.00 | 84 | 1089.3 |
| 20260506102017 | 14 | 85 | 9.7 | 12.9 | 0.00 | 0.00 | 0.00 | 83 | 1089.7 |
| 20260506101513 | 14 | 38 | 6.4 | 6.4 | 0.00 | 0.00 | 0.00 | 83 | 1089.7 |
| 20260506101010 | 14 | 34 | 6.4 | 11.3 | 0.00 | 0.00 | 0.00 | 83 | 1089.6 |
| 20260506100509 | 14 | 47 | 4.8 | 4.8 | 0.00 | 0.00 | 0.00 | 83 | 1089.3 |
| 20260506100007 | 14 | 44 | 3.2 | 4.8 | 0.00 | 0.00 | 0.00 | 83 | 1089.5 |
| 20260506095505 | 14 | 64 | 12.9 | 16.1 | 0.00 | 0.00 | 0.00 | 82 | 1088.9 |
| 20260506095000 | 15 | 43 | 12.9 | 20.9 | 0.00 | 0.00 | 0.00 | 82 | 1089.3 |
| 20260506094459 | 15 | 350 | 4.8 | 6.4 | 0.00 | 0.00 | 0.00 | 83 | 1089.3 |
| 20260506093956 | 15 | 33 | 1.6 | 1.6 | 0.00 | 0.00 | 0.00 | 83 | 1089.3 |
| 20260506093454 | 15 | 42 | 6.4 | 6.4 | 0.00 | 0.00 | 0.00 | 83 | 1088.9 |
| 20260506092952 | 15 | 23 | 4.8 | 6.4 | 0.00 | 0.00 | 0.00 | 83 | 1089.0 |
| 20260506092449 | 15 | 37 | 4.8 | 4.8 | 0.00 | 0.00 | 0.00 | 83 | 1088.9 |
| 20260506091946 | 15 | 36 | 3.2 | 4.8 | 0.00 | 0.00 | 0.00 | 83 | 1088.6 |
| 20260506091444 | 15 | 15 | 4.8 | 9.7 | 0.00 | 0.00 | 0.00 | 83 | 1088.6 |
| 20260506090941 | 16 | 43 | 6.4 | 11.3 | 0.00 | 0.00 | 0.00 | 83 | 1088.7 |
| 20260506090439 | 16 | 38 | 4.8 | 6.4 | 0.00 | 0.00 | 0.00 | 83 | 1088.4 |
| 20260506085935 | 16 | 38 | 3.2 | 4.8 | 0.00 | 0.00 | 0.00 | 83 | 1088.4 |
| 20260506085432 | 16 | 358 | 3.2 | 4.8 | 0.00 | 0.00 | 0.00 | 82 | 1088.7 |
| 20260506084928 | 16 | 36 | 4.8 | 6.4 | 0.00 | 0.00 | 0.00 | 82 | 1088.6 |
| 20260506084426 | 16 | 41 | 3.2 | 3.2 | 0.00 | 0.00 | 0.00 | 82 | 1088.3 |
| 20260506083921 | 16 | 40 | 9.7 | 12.9 | 0.00 | 0.00 | 0.00 | 82 | 1088.4 |
| 20260506083419 | 16 | 29 | 6.4 | 9.7 | 0.00 | 0.00 | 0.00 | 82 | 1088.5 |
| 20260506082916 | 16 | 16 | 4.8 | 4.8 | 0.00 | 0.00 | 0.00 | 82 | 1088.5 |
| 20260506082413 | 17 | 358 | 3.2 | 4.8 | 0.00 | 0.00 | 0.00 | 82 | 1088.6 |
| 20260506081908 | 17 | 35 | 3.2 | 6.4 | 0.00 | 0.00 | 0.00 | 82 | 1088.5 |
| 20260506081408 | 17 | 23 | 4.8 | 6.4 | 0.00 | 0.00 | 0.00 | 82 | 1088.5 |
| 20260506080904 | 17 | 37 | 4.8 | 6.4 | 0.00 | 0.00 | 0.00 | 82 | 1088.6 |
| 20260506080401 | 17 | 37 | 3.2 | 4.8 | 0.00 | 0.00 | 0.00 | 81 | 1088.6 |
| 20260506073345 | 17 | 41 | 0.0 | 1.6 | 0.00 | 0.00 | 0.00 | 78 | 1088.6 |
| 20260506072841 | 17 | 68 | 0.0 | 1.6 | 0.00 | 0.00 | 0.00 | 77 | 1088.9 |
| 20260506072339 | 17 | 83 | 3.2 | 3.2 | 0.00 | 0.00 | 0.00 | 77 | 1088.5 |
| 20260506071837 | 18 | 49 | 3.2 | 4.8 | 0.00 | 0.00 | 0.00 | 76 | 1088.7 |
| 20260506071335 | 18 | 73 | 0.0 | 0.0 | 0.00 | 0.00 | 0.00 | 76 | 1088.6 |
| 20260506070831 | 17 | 69 | 1.6 | 3.2 | 0.00 | 0.00 | 0.00 | 76 | 1089.0 |
| 20260506070328 | 18 | 95 | 0.0 | 1.6 | 0.00 | 0.00 | 0.00 | 75 | 1089.0 |
| 20260506062306 | 19 | 49 | 4.8 | 4.8 | 0.00 | 0.00 | 0.00 | 69 | 1088.5 |
| 20260506061801 | 19 | 63 | 3.2 | 4.8 | 0.00 | 0.00 | 0.00 | 68 | 1088.0 |
| 20260506061258 | 19 | 44 | 3.2 | 4.8 | 0.00 | 0.00 | 0.00 | 66 | 1087.9 |
| 20260506060757 | 19 | 13 | 3.2 | 3.2 | 0.00 | 0.00 | 0.00 | 64 | 1088.1 |
| 20260506060254 | 20 | 13 | 3.2 | 3.2 | 0.00 | 0.00 | 0.00 | 60 | 1088.1 |
| 20260506051226 | 19 | 25 | 0.0 | 0.0 | 0.00 | 0.00 | 0.00 | 60 | 1087.8 |
| 20260506050724 | 20 | 25 | 0.0 | 1.6 | 0.00 | 0.00 | 0.00 | 55 | 1088.0 |
| 20260506050221 | 20 | 25 | 0.0 | 0.0 | 0.00 | 0.00 | 0.00 | 51 | 1088.1 |
| 20260506044712 | 19 | 25 | 0.0 | 0.0 | 0.00 | 0.00 | 0.00 | 59 | 1087.9 |
| 20260506044209 | 20 | 25 | 0.0 | 0.0 | 0.00 | 0.00 | 0.00 | 57 | 1087.9 |
| 20260506043706 | 20 | 25 | 0.0 | 0.0 | 0.00 | 0.00 | 0.00 | 55 | 1087.9 |
| 20260506043204 | 20 | 25 | 0.0 | 0.0 | 0.00 | 0.00 | 0.00 | 53 | 1088.1 |
| 20260506042703 | 20 | 25 | 1.6 | 1.6 | 0.00 | 0.00 | 0.00 | 52 | 1087.9 |
| 20260506042200 | 20 | 25 | 0.0 | 0.0 | 0.00 | 0.00 | 0.00 | 49 | 1087.8 |
| 20260506041659 | 21 | 25 | 0.0 | 0.0 | 0.00 | 0.00 | 0.00 | 51 | 1087.8 |
| 20260506041155 | 21 | 25 | 0.0 | 0.0 | 0.00 | 0.00 | 0.00 | 42 | 1087.7 |
| 20260506040653 | 21 | 25 | 0.0 | 0.0 | 0.00 | 0.00 | 0.00 | 42 | 1087.7 |
| 20260506040149 | 22 | 25 | 0.0 | 0.0 | 0.00 | 0.00 | 0.00 | 42 | 1087.8 |
| 20260506035646 | 22 | 25 | 0.0 | 0.0 | 0.00 | 0.00 | 0.00 | 41 | 1087.7 |
| 20260506035143 | 22 | 25 | 0.0 | 0.0 | 0.00 | 0.00 | 0.00 | 42 | 1087.8 |
| 20260506034640 | 22 | 25 | 0.0 | 0.0 | 0.00 | 0.00 | 0.00 | 41 | 1087.9 |
| 20260506034137 | 22 | 25 | 0.0 | 0.0 | 0.00 | 0.00 | 0.00 | 46 | 1087.9 |
| 20260506033634 | 21 | 25 | 0.0 | 0.0 | 0.00 | 0.00 | 0.00 | 45 | 1087.8 |
| 20260506033131 | 22 | 25 | 0.0 | 1.6 | 0.00 | 0.00 | 0.00 | 47 | 1087.8 |
| 20260506032628 | 22 | 25 | 0.0 | 0.0 | 0.00 | 0.00 | 0.00 | 48 | 1088.0 |
| 20260506032125 | 22 | 25 | 0.0 | 1.6 | 0.00 | 0.00 | 0.00 | 43 | 1087.9 |
| 20260506031622 | 22 | 25 | 0.0 | 1.6 | 0.00 | 0.00 | 0.00 | 44 | 1087.7 |
| 20260506031119 | 22 | 25 | 1.6 | 1.6 | 0.00 | 0.00 | 0.00 | 46 | 1087.5 |
| 20260506030618 | 23 | 25 | 0.0 | 0.0 | 0.00 | 0.00 | 0.00 | 41 | 1087.3 |
| 20260506030115 | 23 | 25 | 0.0 | 0.0 | 0.00 | 0.00 | 0.00 | 40 | 1087.5 |
| 20260506025612 | 23 | 25 | 0.0 | 0.0 | 0.00 | 0.00 | 0.00 | 42 | 1087.3 |
| 20260506025107 | 23 | 25 | 0.0 | 0.0 | 0.00 | 0.00 | 0.00 | 38 | 1087.4 |
| 20260506024605 | 24 | 25 | 0.0 | 0.0 | 0.00 | 0.00 | 0.00 | 38 | 1087.3 |
| 20260506024101 | 25 | 25 | 0.0 | 0.0 | 0.00 | 0.00 | 0.00 | 38 | 1087.1 |
| 20260506023557 | 25 | 25 | 0.0 | 0.0 | 0.00 | 0.00 | 0.00 | 39 | 1087.3 |
| 20260506023055 | 25 | 25 | 0.0 | 0.0 | 0.00 | 0.00 | 0.00 | 39 | 1086.8 |
| 20260506022552 | 25 | 25 | 1.6 | 3.2 | 0.00 | 0.00 | 0.00 | 36 | 1087.0 |
| 20260506022049 | 25 | 19 | 0.0 | 1.6 | 0.00 | 0.00 | 0.00 | 39 | 1087.1 |
| 20260506021547 | 25 | 5 | 1.6 | 1.6 | 0.00 | 0.00 | 0.00 | 39 | 1086.8 |
| 20260506021044 | 24 | 335 | 0.0 | 0.0 | 0.00 | 0.00 | 0.00 | 43 | 1087.1 |
| 20260506020541 | 25 | 335 | 0.0 | 0.0 | 0.00 | 0.00 | 0.00 | 40 | 1087.0 |
| 20260506020038 | 25 | 335 | 0.0 | 0.0 | 0.00 | 0.00 | 0.00 | 39 | 1086.9 |
| 20260506015536 | 25 | 335 | 1.6 | 1.6 | 0.00 | 0.00 | 0.00 | 37 | 1086.9 |
| 20260506015033 | 26 | 324 | 0.0 | 0.0 | 0.00 | 0.00 | 0.00 | 37 | 1086.7 |
| 20260506014530 | 26 | 318 | 0.0 | 0.0 | 0.00 | 0.00 | 0.00 | 34 | 1086.5 |
| 20260506014026 | 27 | 317 | 1.6 | 1.6 | 0.00 | 0.00 | 0.00 | 33 | 1086.5 |
| 20260506013524 | 27 | 294 | 1.6 | 3.2 | 0.00 | 0.00 | 0.00 | 34 | 1086.6 |
| 20260506013021 | 27 | 298 | 1.6 | 4.8 | 0.00 | 0.00 | 0.00 | 33 | 1086.5 |
| 20260506012517 | 27 | 305 | 1.6 | 1.6 | 0.00 | 0.00 | 0.00 | 35 | 1086.1 |
| 20260506012014 | 27 | 304 | 1.6 | 1.6 | 0.00 | 0.00 | 0.00 | 35 | 1086.3 |
| 20260506011511 | 28 | 281 | 3.2 | 3.2 | 0.00 | 0.00 | 0.00 | 35 | 1086.2 |
| 20260506011008 | 28 | 276 | 4.8 | 6.4 | 0.00 | 0.00 | 0.00 | 33 | 1086.0 |
| 20260506010507 | 27 | 296 | 1.6 | 3.2 | 0.00 | 0.00 | 0.00 | 37 | 1086.3 |
| 20260506010003 | 28 | 303 | 0.0 | 0.0 | 0.00 | 0.00 | 0.00 | 37 | 1085.9 |
| 20260506005501 | 28 | 303 | 0.0 | 0.0 | 0.00 | 0.00 | 0.00 | 38 | 1086.0 |
| 20260506004956 | 28 | 303 | 0.0 | 0.0 | 0.00 | 0.00 | 0.00 | 36 | 1085.6 |
| 20260506004454 | 29 | 304 | 1.6 | 1.6 | 0.00 | 0.00 | 0.00 | 35 | 1085.8 |
| 20260506003950 | 29 | 304 | 1.6 | 1.6 | 0.00 | 0.00 | 0.00 | 34 | 1085.8 |
| 20260506003446 | 29 | 305 | 1.6 | 1.6 | 0.00 | 0.00 | 0.00 | 34 | 1085.7 |
| 20260506002943 | 30 | 296 | 0.0 | 1.6 | 0.00 | 0.00 | 0.00 | 34 | 1085.6 |
| 20260506002439 | 30 | 294 | 0.0 | 0.0 | 0.00 | 0.00 | 0.00 | 33 | 1086.0 |
| 20260506001934 | 30 | 294 | 1.6 | 1.6 | 0.00 | 0.00 | 0.00 | 31 | 1085.3 |
| 20260506001432 | 30 | 285 | 0.0 | 1.6 | 0.00 | 0.00 | 0.00 | 33 | 1085.7 |
| 20260506000929 | 30 | 285 | 1.6 | 1.6 | 0.00 | 0.00 | 0.00 | 32 | 1085.6 |
| 20260506000426 | 30 | 290 | 1.6 | 3.2 | 0.00 | 0.00 | 0.00 | 31 | 1085.7 |
| 20260505235923 | 30 | 297 | 1.6 | 1.6 | 0.00 | 0.00 | 0.00 | 32 | 1085.4 |
| 20260505235421 | 30 | 273 | 3.2 | 4.8 | 0.00 | 0.00 | 0.00 | 31 | 1085.4 |
| 20260505234918 | 30 | 282 | 3.2 | 3.2 | 0.00 | 0.00 | 0.00 | 29 | 1085.3 |
| 20260505234415 | 30 | 266 | 1.6 | 1.6 | 0.00 | 0.00 | 0.00 | 30 | 1085.4 |
| 20260505233912 | 30 | 269 | 6.4 | 6.4 | 0.00 | 0.00 | 0.00 | 29 | 1085.4 |
| 20260505233410 | 31 | 282 | 3.2 | 3.2 | 0.00 | 0.00 | 0.00 | 28 | 1085.2 |
| 20260505232907 | 31 | 272 | 6.4 | 9.7 | 0.00 | 0.00 | 0.00 | 27 | 1085.8 |
| 20260505232405 | 31 | 276 | 8.0 | 11.3 | 0.00 | 0.00 | 0.00 | 27 | 1085.8 |
| 20260505231901 | 31 | 267 | 4.8 | 4.8 | 0.00 | 0.00 | 0.00 | 29 | 1085.4 |
| 20260505231359 | 32 | 300 | 1.6 | 3.2 | 0.00 | 0.00 | 0.00 | 27 | 1085.4 |
| 20260505230857 | 31 | 338 | 8.0 | 9.7 | 0.00 | 0.00 | 0.00 | 27 | 1085.6 |
| 20260505230354 | 32 | 294 | 4.8 | 6.4 | 0.00 | 0.00 | 0.00 | 27 | 1085.4 |
| 20260505225850 | 32 | 306 | 1.6 | 1.6 | 0.00 | 0.00 | 0.00 | 28 | 1085.2 |
| 20260505225348 | 31 | 292 | 1.6 | 3.2 | 0.00 | 0.00 | 0.00 | 28 | 1085.6 |
| 20260505224843 | 31 | 299 | 9.7 | 11.3 | 0.00 | 0.00 | 0.00 | 25 | 1085.7 |
| 20260505224341 | 31 | 291 | 9.7 | 12.9 | 0.00 | 0.00 | 0.00 | 26 | 1085.7 |
| 20260505223838 | 32 | 296 | 8.0 | 11.3 | 0.00 | 0.00 | 0.00 | 26 | 1085.7 |
| 20260505223334 | 32 | 293 | 6.4 | 6.4 | 0.00 | 0.00 | 0.00 | 26 | 1085.7 |
| 20260505222830 | 32 | 280 | 4.8 | 4.8 | 0.00 | 0.00 | 0.00 | 27 | 1085.4 |
| 20260505222326 | 32 | 296 | 6.4 | 11.3 | 0.00 | 0.00 | 0.00 | 26 | 1085.7 |
| 20260505221824 | 32 | 279 | 8.0 | 9.7 | 0.00 | 0.00 | 0.00 | 25 | 1085.6 |
| 20260505221320 | 32 | 285 | 6.4 | 6.4 | 0.00 | 0.00 | 0.00 | 26 | 1085.4 |
| 20260505220818 | 32 | 288 | 3.2 | 3.2 | 0.00 | 0.00 | 0.00 | 26 | 1085.6 |
| 20260505220314 | 33 | 284 | 8.0 | 9.7 | 0.00 | 0.00 | 0.00 | 25 | 1085.4 |
| 20260505215813 | 33 | 261 | 6.4 | 6.4 | 0.00 | 0.00 | 0.00 | 25 | 1085.7 |
| 20260505215310 | 32 | 272 | 4.8 | 6.4 | 0.00 | 0.00 | 0.00 | 26 | 1085.7 |
| 20260505214808 | 33 | 271 | 6.4 | 9.7 | 0.00 | 0.00 | 0.00 | 26 | 1085.4 |
| 20260505214305 | 32 | 276 | 4.8 | 9.7 | 0.00 | 0.00 | 0.00 | 25 | 1085.6 |
| 20260505213802 | 33 | 251 | 12.9 | 14.5 | 0.00 | 0.00 | 0.00 | 25 | 1085.7 |
| 20260505213300 | 33 | 300 | 4.8 | 4.8 | 0.00 | 0.00 | 0.00 | 27 | 1085.8 |
| 20260505212755 | 32 | 350 | 4.8 | 4.8 | 0.00 | 0.00 | 0.00 | 28 | 1085.6 |
| 20260505212253 | 32 | 290 | 4.8 | 6.4 | 0.00 | 0.00 | 0.00 | 26 | 1085.8 |
| 20260505211749 | 33 | 324 | 6.4 | 11.3 | 0.00 | 0.00 | 0.00 | 28 | 1085.9 |
| 20260505211247 | 32 | 358 | 3.2 | 4.8 | 0.00 | 0.00 | 0.00 | 26 | 1085.8 |
| 20260505210743 | 33 | 311 | 16.1 | 22.5 | 0.00 | 0.00 | 0.00 | 26 | 1086.0 |
| 20260505210240 | 33 | 296 | 9.7 | 12.9 | 0.00 | 0.00 | 0.00 | 26 | 1086.0 |
| 20260505205737 | 32 | 261 | 3.2 | 4.8 | 0.00 | 0.00 | 0.00 | 28 | 1086.1 |
| 20260505205236 | 33 | 268 | 4.8 | 4.8 | 0.00 | 0.00 | 0.00 | 30 | 1086.1 |
| 20260505204732 | 32 | 306 | 9.7 | 14.5 | 0.00 | 0.00 | 0.00 | 28 | 1086.2 |
| 20260505204230 | 32 | 277 | 8.0 | 11.3 | 0.00 | 0.00 | 0.00 | 30 | 1085.9 |
| 20260505203726 | 32 | 282 | 14.5 | 16.1 | 0.00 | 0.00 | 0.00 | 28 | 1086.1 |
| 20260505203224 | 32 | 278 | 12.9 | 20.9 | 0.00 | 0.00 | 0.00 | 28 | 1086.1 |
| 20260505202719 | 32 | 248 | 9.7 | 11.3 | 0.00 | 0.00 | 0.00 | 28 | 1086.4 |
| 20260505202215 | 32 | 267 | 4.8 | 6.4 | 0.00 | 0.00 | 0.00 | 28 | 1086.3 |
| 20260505201712 | 31 | 253 | 9.7 | 11.3 | 0.00 | 0.00 | 0.00 | 28 | 1086.4 |
| 20260505201210 | 32 | 274 | 8.0 | 9.7 | 0.00 | 0.00 | 0.00 | 29 | 1086.3 |
| 20260505200708 | 32 | 279 | 4.8 | 4.8 | 0.00 | 0.00 | 0.00 | 30 | 1086.5 |
| 20260505200204 | 32 | 257 | 6.4 | 6.4 | 0.00 | 0.00 | 0.00 | 29 | 1086.5 |
| 20260505195700 | 32 | 274 | 11.3 | 14.5 | 0.00 | 0.00 | 0.00 | 29 | 1086.3 |
| 20260505195158 | 31 | 278 | 6.4 | 9.7 | 0.00 | 0.00 | 0.00 | 30 | 1086.4 |
| 20260505194655 | 32 | 301 | 6.4 | 6.4 | 0.00 | 0.00 | 0.00 | 31 | 1086.7 |
| 20260505194151 | 32 | 290 | 6.4 | 11.3 | 0.00 | 0.00 | 0.00 | 30 | 1086.7 |
| 20260505193648 | 32 | 253 | 4.8 | 6.4 | 0.00 | 0.00 | 0.00 | 30 | 1086.5 |
| 20260505193144 | 32 | 292 | 6.4 | 9.7 | 0.00 | 0.00 | 0.00 | 32 | 1086.6 |
| 20260505192643 | 31 | 273 | 6.4 | 9.7 | 0.00 | 0.00 | 0.00 | 32 | 1086.7 |
| 20260505192141 | 31 | 294 | 6.4 | 6.4 | 0.00 | 0.00 | 0.00 | 33 | 1086.6 |
| 20260505191639 | 31 | 248 | 9.7 | 12.9 | 0.00 | 0.00 | 0.00 | 33 | 1086.8 |
| 20260505191137 | 31 | 324 | 4.8 | 6.4 | 0.00 | 0.00 | 0.00 | 35 | 1086.8 |
| 20260505190632 | 31 | 276 | 16.1 | 20.9 | 0.00 | 0.00 | 0.00 | 35 | 1086.7 |
| 20260505190127 | 31 | 285 | 8.0 | 11.3 | 0.00 | 0.00 | 0.00 | 37 | 1087.0 |
| 20260505185624 | 31 | 310 | 6.4 | 9.7 | 0.00 | 0.00 | 0.00 | 39 | 1087.0 |
| 20260505185120 | 31 | 270 | 11.3 | 14.5 | 0.00 | 0.00 | 0.00 | 37 | 1086.8 |
| 20260505184617 | 31 | 296 | 9.7 | 12.9 | 0.00 | 0.00 | 0.00 | 39 | 1087.0 |
| 20260505184114 | 31 | 258 | 6.4 | 6.4 | 0.00 | 0.00 | 0.00 | 40 | 1087.4 |
| 20260505183611 | 30 | 319 | 8.0 | 9.7 | 0.00 | 0.00 | 0.00 | 39 | 1087.3 |
| 20260505183109 | 30 | 335 | 6.4 | 11.3 | 0.00 | 0.00 | 0.00 | 42 | 1087.4 |
| 20260505182604 | 30 | 313 | 9.7 | 11.3 | 0.00 | 0.00 | 0.00 | 40 | 1087.4 |
| 20260505182101 | 30 | 284 | 3.2 | 4.8 | 0.00 | 0.00 | 0.00 | 42 | 1087.5 |
| 20260505181558 | 30 | 243 | 9.7 | 9.7 | 0.00 | 0.00 | 0.00 | 41 | 1087.6 |
| 20260505181055 | 30 | 276 | 6.4 | 6.4 | 0.00 | 0.00 | 0.00 | 42 | 1087.5 |
| 20260505180550 | 30 | 262 | 9.7 | 11.3 | 0.00 | 0.00 | 0.00 | 43 | 1087.7 |
| 20260505180049 | 29 | 293 | 8.0 | 9.7 | 0.00 | 0.00 | 0.00 | 42 | 1087.6 |
| 20260505175549 | 30 | 273 | 8.0 | 9.7 | 0.00 | 0.00 | 0.00 | 45 | 1087.7 |
| 20260505175046 | 29 | 279 | 6.4 | 11.3 | 0.00 | 0.00 | 0.00 | 45 | 1087.5 |
| 20260505174543 | 29 | 236 | 8.0 | 9.7 | 0.00 | 0.00 | 0.00 | 46 | 1087.8 |
| 20260505174039 | 29 | 305 | 9.7 | 12.9 | 0.00 | 0.00 | 0.00 | 44 | 1087.6 |
| 20260505173536 | 28 | 271 | 11.3 | 12.9 | 0.00 | 0.00 | 0.00 | 47 | 1087.7 |
| 20260505173033 | 28 | 268 | 9.7 | 12.9 | 0.00 | 0.00 | 0.00 | 49 | 1087.9 |
| 20260505172531 | 28 | 206 | 3.2 | 3.2 | 0.00 | 0.00 | 0.00 | 52 | 1087.5 |
| 20260505172027 | 28 | 256 | 3.2 | 4.8 | 0.00 | 0.00 | 0.00 | 52 | 1087.8 |
| 20260505171522 | 27 | 272 | 4.8 | 4.8 | 0.00 | 0.00 | 0.00 | 56 | 1087.8 |
| 20260505171019 | 27 | 239 | 11.3 | 12.9 | 0.00 | 0.00 | 0.00 | 56 | 1087.6 |
| 20260505170516 | 27 | 252 | 9.7 | 11.3 | 0.00 | 0.00 | 0.00 | 59 | 1087.9 |
| 20260505170013 | 27 | 250 | 3.2 | 3.2 | 0.00 | 0.00 | 0.00 | 63 | 1087.9 |
| 20260505165508 | 27 | 205 | 3.2 | 4.8 | 0.00 | 0.00 | 0.00 | 65 | 1088.0 |
| 20260505165004 | 26 | 258 | 8.0 | 9.7 | 0.00 | 0.00 | 0.00 | 66 | 1087.8 |
| 20260505164500 | 26 | 178 | 8.0 | 11.3 | 0.00 | 0.00 | 0.00 | 67 | 1088.1 |
| 20260505163958 | 26 | 218 | 1.6 | 3.2 | 0.00 | 0.00 | 0.00 | 70 | 1088.0 |
| 20260505163456 | 25 | 232 | 1.6 | 1.6 | 0.00 | 0.00 | 0.00 | 71 | 1088.0 |
| 20260505162955 | 25 | 248 | 4.8 | 4.8 | 0.00 | 0.00 | 0.00 | 72 | 1088.0 |
| 20260505162451 | 25 | 258 | 6.4 | 6.4 | 0.00 | 0.00 | 0.00 | 73 | 1087.9 |
| 20260505161947 | 25 | 269 | 9.7 | 11.3 | 0.00 | 0.00 | 0.00 | 74 | 1087.9 |
| 20260505161444 | 25 | 201 | 4.8 | 9.7 | 0.00 | 0.00 | 0.00 | 75 | 1088.0 |
| 20260505160942 | 25 | 213 | 4.8 | 4.8 | 0.00 | 0.00 | 0.00 | 76 | 1088.0 |
| 20260505160440 | 25 | 214 | 4.8 | 6.4 | 0.00 | 0.00 | 0.00 | 77 | 1088.2 |
| 20260505152916 | 23 | 213 | 4.8 | 9.7 | 0.00 | 0.00 | 0.00 | 81 | 1087.7 |
| 20260505152414 | 23 | 211 | 1.6 | 1.6 | 0.00 | 0.00 | 0.00 | 82 | 1087.9 |
| 20260505151913 | 23 | 229 | 4.8 | 6.4 | 0.00 | 0.00 | 0.00 | 82 | 1087.8 |
| 20260505151410 | 22 | 201 | 6.4 | 9.7 | 0.00 | 0.00 | 0.00 | 83 | 1087.7 |
| 20260505150908 | 22 | 228 | 1.6 | 1.6 | 0.00 | 0.00 | 0.00 | 84 | 1087.5 |
| 20260505150405 | 22 | 181 | 6.4 | 9.7 | 0.00 | 0.00 | 0.00 | 84 | 1087.6 |
| 20260505140334 | 20 | 177 | 9.7 | 14.5 | 0.00 | 0.00 | 0.00 | 89 | 1087.6 |
| 20260505130257 | 19 | 186 | 12.9 | 17.7 | 0.00 | 0.00 | 0.00 | 93 | 1087.1 |
| 20260505124748 | 19 | 197 | 6.4 | 9.7 | 0.00 | 0.00 | 0.00 | 93 | 1087.3 |
| 20260505124245 | 19 | 193 | 9.7 | 14.5 | 0.00 | 0.00 | 0.00 | 93 | 1087.4 |
| 20260505123740 | 19 | 200 | 8.0 | 9.7 | 0.00 | 0.00 | 0.00 | 94 | 1086.9 |
| 20260505123237 | 18 | 161 | 4.8 | 6.4 | 0.00 | 0.00 | 0.00 | 94 | 1087.4 |
| 20260505122734 | 18 | 195 | 6.4 | 9.7 | 0.00 | 0.00 | 0.00 | 94 | 1087.0 |
| 20260505122231 | 18 | 185 | 4.8 | 6.4 | 0.00 | 0.00 | 0.00 | 94 | 1086.8 |
| 20260505121728 | 18 | 177 | 4.8 | 6.4 | 0.00 | 0.00 | 0.00 | 94 | 1086.8 |
| 20260505121224 | 18 | 215 | 8.0 | 11.3 | 0.00 | 0.00 | 0.00 | 93 | 1086.5 |
| 20260505120721 | 18 | 165 | 6.4 | 11.3 | 0.00 | 0.00 | 0.00 | 93 | 1086.6 |
| 20260505120217 | 18 | 190 | 6.4 | 9.7 | 0.00 | 0.00 | 0.00 | 93 | 1086.6 |
| 20260505115715 | 18 | 177 | 6.4 | 6.4 | 0.00 | 0.00 | 0.00 | 93 | 1086.4 |
| 20260505115213 | 18 | 176 | 4.8 | 6.4 | 0.00 | 0.00 | 0.00 | 93 | 1086.5 |
| 20260505114711 | 18 | 183 | 8.0 | 11.3 | 0.00 | 0.00 | 0.00 | 92 | 1086.4 |
| 20260505114206 | 18 | 176 | 6.4 | 9.7 | 0.00 | 0.00 | 0.00 | 93 | 1086.6 |
| 20260505113703 | 18 | 214 | 4.8 | 6.4 | 0.00 | 0.00 | 0.00 | 92 | 1086.3 |
| 20260505113200 | 18 | 166 | 3.2 | 4.8 | 0.00 | 0.00 | 0.00 | 92 | 1086.1 |
| 20260505112656 | 18 | 182 | 3.2 | 3.2 | 0.00 | 0.00 | 0.00 | 92 | 1086.4 |
| 20260505112154 | 18 | 177 | 6.4 | 9.7 | 0.00 | 0.00 | 0.00 | 92 | 1086.1 |
| 20260505111653 | 18 | 191 | 6.4 | 6.4 | 0.00 | 0.00 | 0.00 | 92 | 1086.2 |
| 20260505111149 | 18 | 187 | 6.4 | 9.7 | 0.00 | 0.00 | 0.00 | 92 | 1085.9 |
| 20260505110646 | 18 | 145 | 6.4 | 9.7 | 0.00 | 0.00 | 0.00 | 91 | 1086.0 |
| 20260505110143 | 18 | 158 | 4.8 | 4.8 | 0.00 | 0.00 | 0.00 | 91 | 1086.1 |